Regional Weather Roundup
Issued by NWS Albany, NY

Home | Current Version | Previous Version | Text Only | Print | Product List | Glossary On
Versions: 1 2 3 4 5 6 7 8 9 10 11 12 13 14 15 16 17 18 19 20 21 22 23 24 25 26 27 28 29 30 31 32 33 34 35 36 37 38 39 40 41 42 43 44 45 46 47 48 49 50
000
ASUS41 KALY 171710
RWRALY

NEW YORK STATE HOURLY WEATHER ROUNDUP
NATIONAL WEATHER SERVICE ALBANY NY
1200 PM EST SUN DEC 17 2017

NOTE: "FAIR" INDICATES FEW OR NO CLOUDS BELOW 12,000 FEET WITH NO
SIGNIFICANT WEATHER AND/OR NO OBSTRUCTIONS TO VISIBILITY.

NYZ032-033-038>043-046>054-057>066-NYZ062>081-082-084-171800-
EAST


CITY           SKY/WX    TMP DP  RH WIND       PRES   REMARKS
ALBANY         MOSUNNY   24  13  62 CALM      30.31F
GLENS FALLS    SUNNY     16   9  74 NE3       30.32S
POUGHKEEPSIE   CLOUDY    27  14  58 N6        30.28F WCI  20
NEWBURGH       PTSUNNY   27  19  74 VRB6      30.28F WCI  20
MONTGOMERY     CLOUDY    30  19  63 CALM      30.25F
WHITE PLAINS   CLOUDY    30  19  63 CALM      30.25F
ISLIP          CLOUDY    32  20  61 N7        30.27F WCI  26
NEW YORK CITY  CLOUDY    35  21  56 E5        30.28F WCI  31
CENTRAL PARK   CLOUDY    35  23  61 CALM      30.30F
$$

NYZ005>009-017-018-044>046-055-056-171800-
CENTRAL


CITY           SKY/WX    TMP DP  RH WIND       PRES   REMARKS
FULTON         CLOUDY    20  12  71 CALM      30.30F
SYRACUSE       CLOUDY    22  15  75 CALM      30.30F
ROME           SUNNY     14   9  80 CALM      30.32F
ELMIRA         CLOUDY    27  18  69 E5        30.23F WCI  22
BINGHAMTON     CLOUDY    21  14  74 NE6       30.19F WCI  13
MONTICELLO     CLOUDY    29  20  69 NW5       30.20F WCI  24
$$

NYZ026>034-041>043-087-171800-
NORTH


CITY           SKY/WX    TMP DP  RH WIND       PRES   REMARKS
WATERTOWN      CLOUDY     9   2  73 NE8       30.33F WCI  -3
FORT DRUM      NOT AVBL
OGDENSBURG     FAIR      12   4  70 CALM      30.35F
MASSENA        SUNNY      7   2  80 W3        30.37F
SARANAC LAKE   SUNNY     10   3  73 SW6       30.17F WCI   0
PLATTSBURGH    MOSUNNY   13   7  77 NE8       30.33F WCI   2
$$

NYZ001>004-010>016-019>021-085-171800-
WEST


CITY           SKY/WX    TMP DP  RH WIND       PRES   REMARKS
NIAGARA FALLS  CLOUDY    24  12  60 E7        30.24F WCI  16
BUFFALO        CLOUDY    22  14  71 NE8       30.23F WCI  12
DUNKIRK        CLOUDY    24  18  77 NE6       30.22F WCI  17
JAMESTOWN      CLOUDY    29  26  89 CALM      30.14F FOG
WELLSVILLE     CLOUDY    28  22  78 CALM      30.16F
ROCHESTER      CLOUDY    24  16  71 E3        30.27F
PENN YAN       CLOUDY    23  14  68 CALM      30.25F
$$

             KEY
       WCI = WIND CHILL INDEX
       VSB = VISIBILITY
       HX  = HEAT INDEX
$$



USA.gov is the U.S. government's official web portal to all federal, state and local government web resources and services.